{"data":{"norad_id":54178,"intl_designator":"2022-141X","name":"STARLINK-5164","alt_names":[],"object_type":"PAYLOAD","status":"ACTIVE","operator":null,"country":"US","launch_date":"2022-10-28","launch_site_code":"AFWTR","launch_vehicle":null,"mission":null,"orbit_class":"UNKNOWN","rcs_meters":null,"size_class":null,"mass_kg":null,"dimensions":null,"purposes":["comms"],"wikipedia_slug":null,"has_3d_model":false,"image_url":null,"decayed_at":null,"tle_current":{"epoch":"2026-05-24T22:38:49.581888Z","epoch_age_seconds":73765,"freshness":"FRESH","line1":"1 54178U 22141X   26144.94362942 -.00000625  00000+0 -21203-4 0  9997","line2":"2 54178  53.2166  21.4806 0001525  92.7134 267.4032 15.08837212197378","mean_motion":15.08837212,"eccentricity":0.0001525,"inclination_deg":53.2166,"raan_deg":21.4806,"arg_perigee_deg":92.7134,"mean_anomaly_deg":267.4032,"bstar":-2.1203e-5,"rev_number":19737,"period_min":95.43773102542,"perigee_km":538.69693271898,"apogee_km":540.80688883676,"semimajor_km":6917.8889107779,"source":"CELESTRAK","updated_at":"2026-05-25T13:38:17.663852Z"}}}